This is the latest recevied weather packets stored in our database for station/object IZ6UQU-13. If no packets are shown the sender has not sent any weather packets the latest 10 day(s).
| Time | Temp. | Humidity | Pressure | Rain* | Wind** | Luminosity | Snow |
|---|---|---|---|---|---|---|---|
| 1777460102 | 23.33° C | 28% | 956.4 hPa | 0 mm | - | - | - |
| 1777459802 | 23.33° C | 29% | 956.4 hPa | 0 mm | - | - | - |
| 1777459502 | 22.22° C | 29% | 956.5 hPa | 0 mm | - | - | - |
| 1777459202 | 22.22° C | 30% | 956.5 hPa | 0 mm | - | - | - |
| 1777458903 | 22.22° C | 30% | 956.6 hPa | 0 mm | - | - | - |
| 1777458602 | 22.22° C | 31% | 956.6 hPa | 0 mm | - | - | - |
| 1777458302 | 22.78° C | 30% | 956.7 hPa | 0 mm | - | - | - |
| 1777458002 | 22.22° C | 31% | 956.6 hPa | 0 mm | - | - | - |
| 1777457702 | 22.22° C | 31% | 956.7 hPa | 0 mm | - | - | - |
| 1777457402 | 22.22° C | 30% | 956.7 hPa | 0 mm | - | - | - |
| 1777457102 | 22.22° C | 31% | 956.8 hPa | 0 mm | - | - | - |
| 1777456802 | 21.11° C | 31% | 956.9 hPa | 0 mm | - | - | - |
| 1777456502 | 21.11° C | 30% | 957 hPa | 0 mm | - | - | - |
| 1777456202 | 21.11° C | 31% | 957.2 hPa | 0 mm | - | - | - |
| 1777455902 | 21.11° C | 34% | 957.1 hPa | 0 mm | - | - | - |
| 1777455602 | 20.56° C | 34% | 957.3 hPa | 0 mm | - | - | - |
| 1777455302 | 21.11° C | 36% | 957.3 hPa | 0 mm | - | - | - |
| 1777455002 | 21.11° C | 34% | 957.4 hPa | 0 mm | - | - | - |
| 1777454702 | 21.11° C | 34% | 957.4 hPa | 0 mm | - | - | - |
| 1777454402 | 21.11° C | 36% | 957.4 hPa | 0 mm | - | - | - |
| 1777454102 | 21.11° C | 37% | 957.4 hPa | 0 mm | - | - | - |
| 1777453802 | 20° C | 42% | 957.5 hPa | 0 mm | - | - | - |
| 1777453502 | 20° C | 42% | 957.5 hPa | 0 mm | - | - | - |
| 1777453202 | 19.44° C | 45% | 957.5 hPa | 0 mm | - | - | - |
| 1777452902 | 18.89° C | 48% | 957.5 hPa | 0 mm | - | - | - |
* Rain latest hour (hover to see other rain measurements)
** Current wind speed in m/s (hover to see current wind gust speed)